アトラス彗星

P/2022 L3 ( ATLAS )

English version
Home page
Updated on September 11, 2022

---------------------------------------------------------------------

・ プロフィール

発見日 2022年6月12日
発見光度 17.6等
発見者 Asteroid Terrestrial-Impact Last Alert System (ATLAS) search program

・ 写真集

・ 軌道要素

Epoch 2022 Aug. 9.0 TT = JDT 2459800.5
T 2022 Oct. 29.95210 TT                                 Rudenko
q   2.4199065            (2000.0)            P               Q
n   0.05925947     Peri.   10.32681     +0.77077652     -0.61040862
a   6.5157471      Node    29.80590     +0.55522546     +0.50308839
e   0.6286064      Incl.   21.53989     +0.31245520     +0.61180338
P  16.6
From 227 observations 2022 June 12-Sept. 8, mean residual 0".7.

・ 星図

・ 光度変化

        m1 = 10.5 + 5 logΔ + 10.0 log r

---------------------------------------------------------------------

軌道要素はM.P.E.C. 2022-R139に掲載されたものです。
星図はステラナビゲータ Ver.10 (アストロアーツ) で作成したものです。
光度グラフはComet for Windowsで作成したものです。

---------------------------------------------------------------------

Copyright(C) Seiichi Yoshida (comet@aerith.net). All rights reserved.